Home > Time Zones > World Clock > Weather > Japan > Kyoto > Past weeks

Flag for Japan Weather past 2 weeks in Kyoto, Japan

Now
40 °F

Chilly.


Feels Like: 36 °F
Forecast: 31 / 46 °F
Wind: 6 mph from Northwest

Location: Osaka

Current Time: Feb 28, 2015 at 12:31:38 AM

Latest Report: Feb 27, 2015 at 11:00 PM


Visibility: N/A

Pressure: 30.26 "Hg

Humidity: 60%

Dew point: 27 °F

Location of KyotoLocation

Historic Weather in Kyoto — Graph

°F

Kyoto temperature yesterday

Maximum temperature yesterday: 49 °F (at 2:00 AM)
Minimum temperature yesterday: 39 °F (at 9:00 PM)
Average temperature yesterday: 45 °F

Past Weeks' High & Low Weather Summary

 TemperatureHumidityPressure
High60 °F (Feb 22, 2:00 PM)97% (Feb 23, 1:00 AM)30.35 "Hg (Feb 23, 1:00 AM)
Low34 °F (Feb 21, 6:00 AM)34% (Feb 21, 2:00 PM)29.78 "Hg (Feb 12, 11:00 PM)
Average46 °F63%30.05 "Hg
* Reported Feb 12 11:00 PM — Feb 27 11:00 PM, Kyoto, Weather by CustomWeather, © 2015

Note: Actual official high and low records may vary slightly from our data, if they occured in-between our weather recording intervals... More about our weather records

Advertising

Kyoto weather history for previous 24 hours

 ConditionsComfort  
Time TempWeatherWind HumidityBarometerVisibility
11:00 PM
Fri, Feb 27
40 °FChilly.6 mph60%30.26 "HgN/A
10:00 PM39 °FChilly.5 mph62%30.25 "HgN/A
9:00 PM39 °FPassing clouds.5 mph61%30.23 "Hg19 mi
8:00 PM40 °FQuite cool.8 mph56%30.22 "HgN/A
7:00 PM41 °FQuite cool.9 mph55%30.19 "HgN/A
6:00 PM42 °FPassing clouds.10 mph51%30.16 "Hg19 mi
5:00 PM44 °FQuite cool.8 mph51%30.12 "HgN/A
4:00 PM46 °FCool.8 mph48%30.09 "HgN/A
3:00 PM46 °FSprinkles. Overcast.9 mph51%30.07 "Hg0 mi
2:00 PM47 °FCool.8 mph52%30.04 "HgN/A
1:00 PM47 °FCool.9 mph52%30.03 "HgN/A
10:00 AM47 °FCool.5 mph41%30.06 "HgN/A
9:00 AM47 °FPassing clouds.12 mph40%30.07 "Hg16 mi
8:00 AM46 °FCool.8 mph48%30.06 "HgN/A
7:00 AM45 °FCool.9 mph51%30.02 "HgN/A
6:00 AM46 °FPassing clouds.10 mph54%30.00 "Hg9 mi
5:00 AM47 °FCool.6 mph55%29.97 "HgN/A
4:00 AM47 °FCool.6 mph80%29.94 "HgN/A
3:00 AM48 °FSprinkles. Overcast.8 mph80%29.93 "Hg5 mi
2:00 AM49 °FCool.6 mph82%29.92 "HgN/A
1:00 AM48 °FCool.9 mph86%29.93 "HgN/A
12:00 AM48 °FCool.2 mph86%29.93 "HgN/A
Weather by CustomWeather, © 2015

See weather overviewHow to use our weather pages